Theta_e
332 331 334 338 333 328 329 332 334 332 335 334 336 336 336 333 332 333 330 329 329 328
335 334 335 334 332 331 335 333 333 333 334 335 336 336 335 334 332 330 329 329 329 327
339 336 335 334 332 333 331 335 333 334 335 335 334 334 333 330 330 329 329 329 328 327
337 336 336 334 333 334 336 336 335 335 334 333 333 334 332 330 331 330 329 329 327 327
331 334 334 333 333 333 332 333 333 332 332 334 334 333 332 329 331 329 327 326 325 325
334 333 332 333 333 333 332 331 331 332 332 331 332 332 332 332 331 328 329 326 326 325
336 335 334 334 334 334 333 332 334 334 332 332 332 331 332 331 329 328 328 329 327 325
336 336 336 335 336 334 333 334 334 333 332 332 334 334 329 329 328 327 327 327 327 326
339 337 336 335 335 333 333 333 334 330 330 330 333 326 329 327 323 325 324 323 324 325
337 336 336 336 336 336 334 331 329 330 331 329 329 325 324 327 321 321 322 323 323 323
336 336 336 336 335 335 332 330 330 330 328 329 330 325 322 324 320 321 323 323 324 323
336 335 335 336 335 334 333 331 331 331 329 328 327 319 319 319 320 321 319 322 323 323
337 336 336 337 335 334 332 331 328 324 328 327 323 320 318 318 319 313 316 320 321 319
339 338 339 338 335 331 330 322 322 326 327 327 322 321 316 314 316 319 318 316 316 315
Wind_Speed
7 3 3 4 4 2 2 3 2 3 3 3 4 4 4 2 3 4 2 2 2 0
6 6 5 5 4 2 3 2 2 2 1 3 3 4 4 3 3 0 3 2 1 0
7 7 7 5 5 4 3 2 3 3 3 3 4 4 4 2 4 2 2 2 2 2
7 7 7 7 5 5 3 3 3 4 4 4 5 5 4 4 5 5 5 4 4 4
7 6 6 6 6 5 4 3 4 4 4 4 5 5 5 5 5 5 5 5 4 6
8 7 7 7 6 5 5 5 5 4 5 6 6 6 7 6 7 5 5 6 6 7
9 8 7 7 7 7 7 6 6 6 7 7 7 7 7 6 6 6 6 7 6 7
9 8 8 8 8 7 7 7 7 6 6 7 6 4 5 3 4 6 7 7 6 7
12 10 9 8 8 7 7 7 6 6 6 7 4 8 6 5 4 5 6 6 6 6
12 11 11 11 8 7 8 7 7 5 5 6 5 9 9 4 2 5 6 6 6 6
10 11 11 9 8 8 6 7 6 6 7 6 5 8 7 3 4 6 8 7 8 7
10 10 9 8 8 6 5 5 6 4 7 6 5 10 11 5 5 5 6 5 7 7
11 10 8 8 9 7 5 5 3 4 5 8 7 8 7 7 1 4 4 5 6 5
10 10 9 8 5 6 5 1 3 5 6 5 3 4 8 7 1 3 3 4 6 4
Wind_Direction
148 161 195 146 154 142 163 170 147 140 171 242 277 281 255 231 262 274 169 164 149 240
167 171 158 149 143 163 122 182 148 177 256 291 306 308 286 247 234 167 149 155 155 206
182 182 172 160 177 200 227 220 230 235 251 285 300 312 307 291 274 255 249 195 225 225
181 181 172 168 195 209 209 219 231 235 249 258 270 279 277 259 261 259 241 213 216 213
165 169 177 180 192 200 194 230 233 249 264 272 277 276 260 256 264 249 257 262 242 222
167 177 179 179 184 194 201 215 238 248 243 254 259 260 259 240 248 254 260 257 221 212
175 181 189 189 199 206 208 217 232 228 236 242 247 247 248 250 241 252 254 249 226 217
176 178 185 194 205 206 210 219 224 237 249 259 251 240 182 205 241 252 255 259 253 236
177 180 188 202 211 208 220 226 223 236 241 264 254 185 203 198 249 270 268 274 270 254
174 182 196 206 202 205 214 206 228 242 237 257 253 212 224 227 255 282 275 262 267 275
171 185 201 201 200 210 200 211 216 230 247 246 251 231 205 206 258 260 249 249 263 253
178 196 197 199 199 207 197 213 214 225 253 246 256 189 193 190 239 273 301 306 295 273
188 191 192 192 197 192 171 211 157 286 269 267 177 195 215 196 244 299 304 305 308 57
187 190 197 198 182 157 151 98 278 261 270 273 347 220 204 204 238 255 299 328 316 70